Location: Cambridge
(43.3830°N, 80.3170°W)
Time: 14:12:09
(UTC-04:00)

Envisat - Pass Details

Date: 27 March 2019
Orbit: 764 x 766 km, 98.2° (Epoch: 21 April)

Event Time Altitude Azimuth Distance (km) Brightness Sun altitude
Rises 21:33:26 0° 223° (SW) 3,222 6.5 -20.4°
Reaches altitude 10° 21:38:04 10° 262° (W) 2,303 6.2 -21.1°
Maximum altitude 21:39:02 11° 273° (W) 2,270 6.4 -21.3°
Drops below altitude 10° 21:40:01 10° 284° (WNW) 2,307 6.6 -21.4°
Sets 21:44:41 0° 324° (NW) 3,241 7.3 -22.2°
